Theta_e
335 337 340 340 342 343 344 346 345 345 347 351 353 354 354 354 356 358 358 358 358 359 360 362 362 361 361 361 362 362 363 364 364 363 364 364 363 363 364 364 362 362 361 362 363 364 367 367 366 364 368 371 369 370 371 371 372 371 371 371 368 365 364
333 333 334 339 340 341 343 346 346 345 347 352 354 356 355 356 358 358 359 360 360 360 360 362 363 362 362 362 362 363 363 364 365 365 365 365 364 365 366 366 365 365 366 364 366 367 369 367 367 366 367 369 369 370 370 370 371 370 369 370 368 366 365
333 335 338 336 339 340 343 344 346 347 348 352 355 355 355 357 359 359 360 360 361 361 361 362 363 362 363 363 363 363 363 364 365 365 364 362 363 359 365 368 368 367 367 367 368 368 369 368 367 369 368 368 366 370 370 371 371 370 370 370 368 365 365
331 331 334 339 341 343 344 344 344 345 350 353 355 356 356 359 361 362 362 361 360 362 362 362 362 362 363 363 363 363 363 364 365 364 363 363 363 362 362 364 367 365 366 365 364 366 365 367 367 367 371 368 368 369 370 369 369 370 370 371 368 367 366
328 329 333 336 339 342 344 345 346 347 347 349 353 359 358 360 359 361 362 363 363 362 362 362 362 363 363 364 362 363 363 364 365 366 365 364 364 363 361 359 364 363 364 365 364 363 366 366 367 367 368 369 368 369 369 370 370 370 369 370 368 366 366
330 332 335 334 336 340 341 341 343 346 349 351 354 358 357 358 358 358 361 364 364 364 365 364 364 364 363 363 363 363 364 365 366 366 366 366 365 362 360 360 360 363 361 364 364 362 363 367 366 367 366 366 365 365 367 368 368 369 370 369 368 365 364
333 333 336 336 336 338 340 343 346 347 351 354 357 359 358 357 357 357 360 363 364 364 364 363 363 363 364 364 364 364 364 364 365 366 367 366 364 363 362 361 361 362 362 365 363 363 361 362 364 366 366 363 363 362 364 366 366 368 368 368 367 367 365
334 331 336 339 339 338 338 341 350 351 354 357 357 358 357 357 358 358 360 362 364 364 365 364 363 364 364 365 365 363 363 363 364 366 366 363 362 361 361 362 362 363 365 363 364 364 361 361 360 364 367 366 366 365 365 367 367 367 367 367 367 367 365
334 333 334 334 334 337 343 347 348 352 357 357 357 358 358 357 357 357 359 362 363 363 365 365 364 364 366 365 364 363 364 365 365 365 364 361 360 357 357 361 364 364 364 362 361 364 364 363 360 362 366 367 367 367 366 367 366 366 366 367 367 366 364
334 333 334 334 337 335 341 343 346 347 354 358 359 360 360 358 359 358 359 360 362 363 364 365 365 364 365 365 364 364 365 366 366 363 361 361 361 357 355 356 360 364 363 362 361 363 364 365 364 364 365 366 367 367 365 365 366 365 365 366 367 367 366
336 335 336 336 340 341 342 340 343 343 348 358 360 361 361 360 359 358 358 359 361 362 364 364 365 365 365 364 362 362 364 364 365 364 363 361 360 360 357 356 358 361 361 360 358 360 364 364 366 367 366 365 366 367 367 365 366 365 363 365 367 367 366
340 337 337 339 341 342 342 343 344 345 350 359 360 360 363 362 360 359 358 359 361 362 362 363 364 364 365 365 364 363 364 363 362 363 363 360 358 359 357 356 358 359 362 362 360 360 361 365 364 365 367 366 366 367 368 367 366 365 365 364 365 366 367
343 340 338 338 339 341 345 347 349 353 360 360 359 359 362 362 360 359 361 361 361 361 361 364 363 364 365 365 362 363 363 363 363 364 362 362 360 359 359 357 355 356 359 362 362 360 357 362 364 364 367 368 367 366 367 368 367 366 366 365 365 366 366
345 339 343 342 340 341 342 349 352 358 362 361 358 359 360 361 360 361 363 361 361 361 361 362 363 364 365 365 363 363 363 364 364 364 363 363 363 362 360 358 358 358 359 364 364 362 359 358 363 365 365 367 368 368 367 367 367 367 367 367 366 365 366
330 336 341 343 355 348 347 354 364 361 362 361 359 358 359 359 361 363 365 362 362 360 360 362 363 363 364 365 364 363 364 366 365 365 365 365 364 363 362 361 360 360 360 363 364 363 362 360 359 364 364 365 368 369 368 367 366 367 367 367 367 366 365
325 331 335 339 347 353 357 355 367 364 364 363 360 360 357 359 362 362 363 362 361 361 361 363 363 362 363 364 365 366 366 366 367 365 365 364 364 364 363 362 361 360 360 360 362 364 366 364 360 360 365 365 367 369 369 367 367 357 344 349 366 366 364
324 326 338 343 352 351 357 360 365 366 365 365 363 362 359 359 362 363 359 359 358 361 362 364 364 362 362 364 367 367 368 367 367 367 365 364 364 365 363 362 362 361 361 361 361 362 366 366 362 357 361 366 366 368 368 368 365 343 336 338 344 362 365
325 332 331 334 341 348 357 358 361 363 364 363 363 365 362 362 362 361 357 358 358 358 360 361 365 362 363 366 369 369 369 368 369 369 367 365 364 365 365 363 362 362 362 361 360 362 365 366 365 362 358 362 366 366 367 368 350 336 335 336 337 344 364
324 330 335 344 348 353 344 342 351 361 358 358 359 359 361 365 362 360 360 360 360 360 358 358 362 364 365 367 369 370 370 370 369 369 369 367 365 365 366 365 362 361 361 361 362 362 363 366 366 365 363 360 364 366 368 368 347 333 332 334 334 336 350
324 327 331 340 347 346 349 354 355 354 354 359 359 354 356 360 360 362 362 361 363 361 361 360 361 367 365 368 370 370 371 371 371 370 369 369 367 365 366 366 364 361 361 361 363 363 363 364 366 366 366 364 363 365 368 369 348 331 329 330 331 333 340
331 333 339 335 341 335 348 360 356 363 366 358 355 359 357 359 361 362 362 361 361 362 363 362 362 369 367 367 370 371 371 372 373 373 372 371 368 366 366 367 367 364 361 360 361 362 363 363 364 366 366 365 364 363 365 369 343 328 326 326 327 330 332
324 324 326 331 367 361 362 354 358 349 358 347 351 356 356 357 356 355 357 359 359 360 362 364 363 368 369 367 370 371 373 373 373 374 373 372 370 367 366 368 369 367 365 362 360 363 366 366 365 364 365 367 366 362 362 364 336 327 325 325 325 327 343
323 325 326 349 359 363 366 364 357 353 364 361 356 351 355 356 356 356 356 356 354 359 359 361 362 364 370 367 368 370 373 374 374 373 373 373 371 368 367 368 370 370 368 365 363 363 364 365 364 365 365 365 366 365 363 363 340 323 323 322 323 326 349
324 326 329 356 362 362 364 360 360 361 351 359 360 358 363 356 357 358 359 357 355 354 355 357 360 364 370 368 367 369 373 375 375 373 372 373 372 370 369 370 371 370 370 366 363 361 364 365 366 367 367 365 365 366 365 366 347 318 319 319 321 330 352
324 330 350 352 352 355 366 368 366 364 365 362 357 361 364 364 360 356 358 359 354 353 354 356 360 363 368 369 368 369 372 375 376 374 373 373 372 371 371 370 370 371 372 368 366 363 365 366 366 367 368 366 366 354 363 366 353 318 317 317 318 328 353
349 350 353 355 358 361 363 365 358 354 350 352 366 368 367 357 358 358 358 357 358 355 355 358 361 366 370 372 370 371 373 374 375 375 372 372 374 373 372 372 370 370 369 369 366 365 364 364 366 367 368 367 365 364 364 365 367 343 315 315 315 319 350
349 353 354 354 354 361 356 361 361 358 362 372 367 366 364 358 360 366 367 362 360 358 358 364 367 369 370 373 371 371 372 373 374 373 372 373 373 372 371 371 369 369 369 367 367 367 365 364 364 364 365 366 368 367 367 366 367 358 315 314 314 316 327
352 353 354 359 354 352 354 355 363 358 353 364 369 366 365 370 369 367 374 365 361 364 368 372 370 370 370 372 371 370 371 371 374 374 373 373 374 373 371 372 372 370 371 369 369 368 367 367 364 362 361 364 366 368 369 368 350 370 320 315 313 314 315
347 345 349 358 357 351 353 359 358 359 361 362 360 364 368 369 368 371 375 368 368 369 373 376 371 371 369 371 371 372 372 372 373 372 371 372 374 373 372 373 372 371 372 371 370 369 367 368 367 365 363 363 365 366 368 373 368 341 341 314 313 312 313
350 350 354 354 353 355 355 357 359 360 362 363 365 364 365 370 369 368 369 370 378 372 374 378 374 373 370 369 370 372 371 372 371 373 372 374 374 373 372 371 371 372 372 371 370 369 368 368 368 366 363 361 362 364 364 374 377 347 332 325 311 311 311
348 349 353 353 351 355 357 356 356 357 359 364 363 363 366 367 367 365 364 369 375 375 374 377 374 372 370 369 370 371 369 370 370 371 372 372 373 371 370 371 370 370 371 371 370 369 367 368 367 366 365 365 363 365 369 367 373 371 344 320 314 312 311
352 352 351 352 353 353 354 356 356 356 356 359 364 367 365 366 368 364 369 372 370 376 375 375 374 372 371 370 370 369 367 367 367 369 369 372 372 373 372 370 368 368 370 371 369 368 367 367 363 363 363 362 361 361 363 370 372 373 361 334 326 319 314
348 351 351 350 351 353 353 354 353 352 353 354 359 362 365 367 370 370 369 371 370 371 375 373 373 371 372 370 367 368 368 366 362 364 369 372 371 372 372 369 369 369 367 367 365 365 364 364 363 361 359 359 363 363 368 367 370 353 337 341 346 344 334
346 348 352 351 350 354 352 352 352 351 351 352 356 359 360 362 363 365 367 365 370 369 371 372 368 366 368 365 366 364 366 366 367 368 365 366 365 365 366 366 366 366 367 365 365 363 362 361 359 358 358 358 360 364 359 355 339 329 329 325 326 329 331
345 347 349 350 351 353 352 351 351 351 351 351 355 357 359 359 360 363 366 367 369 372 368 368 366 367 368 368 366 367 368 367 366 364 362 357 342 336 334 346 361 348 337 332 334 346 359 364 352 348 349 349 348 348 346 340 333 326 312 319 311 320 324
345 346 347 350 351 351 350 350 350 350 350 351 353 355 357 358 361 364 364 367 369 372 369 367 367 367 367 367 367 366 366 366 363 363 361 347 342 337 334 321 313 331 337 328 316 310 311 319 336 340 348 342 339 340 337 333 331 309 302 303 303 304 304
345 345 347 348 348 348 348 348 348 348 348 349 350 350 353 355 358 361 361 363 366 369 370 370 368 364 357 357 361 367 367 369 367 360 352 347 346 344 335 332 325 304 306 315 314 308 302 302 304 309 318 337 338 330 315 316 310 304 303 303 304 304 303
346 346 346 347 348 347 346 346 346 346 345 348 349 350 352 350 352 357 356 359 360 361 360 360 360 355 355 356 356 353 353 357 358 358 355 349 345 343 340 336 334 331 309 301 305 305 302 302 302 301 303 309 320 332 339 321 307 302 303 303 304 304 303
Wind_Speed
22 22 19 18 17 19 17 18 18 16 17 20 22 22 22 20 18 18 18 20 22 21 20 19 18 17 18 16 16 15 14 13 11 11 11 10 9 8 10 9 9 8 8 8 8 9 8 8 9 9 9 9 8 7 8 7 7 7 6 5 5 7 7
21 20 20 20 20 19 19 19 19 18 18 19 21 20 20 21 18 19 19 21 23 22 22 20 19 18 18 16 15 16 15 15 13 11 11 9 9 8 9 10 9 9 8 8 8 8 8 9 8 9 9 10 9 8 8 8 7 7 6 7 6 7 7
21 19 19 19 20 19 18 16 16 20 21 17 20 22 22 21 20 21 20 21 22 22 21 21 20 19 18 17 16 17 16 14 14 14 14 13 13 14 10 10 10 9 10 9 8 9 8 9 9 8 10 10 10 9 8 9 8 8 8 8 7 7 8
19 21 22 22 20 20 18 17 17 15 12 18 24 26 23 21 19 18 19 21 23 22 23 21 20 19 19 18 18 17 17 16 16 15 16 14 13 12 10 10 10 9 10 10 9 9 9 9 10 8 9 10 10 10 9 9 9 9 9 8 8 8 7
21 19 20 21 22 18 16 14 15 16 20 25 26 23 21 20 20 19 19 21 23 25 25 24 21 20 17 18 15 15 17 18 16 14 14 13 12 12 12 13 12 12 10 10 10 8 7 10 10 10 9 8 10 10 10 9 10 9 9 9 8 8 8
21 19 19 20 18 19 20 22 23 24 24 26 26 25 23 24 22 24 23 22 22 21 20 20 20 18 18 18 17 16 16 16 15 15 14 13 13 13 13 12 12 12 12 11 10 10 9 8 10 11 11 10 10 11 12 11 10 10 9 9 9 8 8
18 17 17 22 20 20 23 21 23 26 26 25 25 22 22 22 25 23 22 22 23 22 23 23 22 20 18 17 17 17 18 18 17 17 15 15 14 13 13 12 11 11 11 9 9 10 11 10 9 10 11 12 10 11 11 11 10 10 9 9 9 8 8
18 18 16 19 18 20 20 20 21 21 20 19 20 22 25 23 22 23 23 22 23 23 22 23 22 19 19 18 17 19 19 19 18 17 15 16 15 14 13 13 12 11 10 11 10 10 11 12 11 9 11 12 11 11 10 11 11 11 10 10 10 10 8
21 19 17 19 19 19 18 15 14 13 16 19 21 21 24 22 23 23 24 23 22 23 24 23 23 20 18 18 18 20 19 19 18 17 17 18 16 18 16 14 12 11 11 11 11 11 10 11 12 10 10 11 11 11 10 10 12 11 11 11 11 11 11
21 20 18 17 17 17 14 14 12 13 14 16 16 16 21 22 21 21 21 22 22 24 25 23 21 19 18 18 19 19 18 18 17 20 20 20 17 18 18 16 14 13 13 12 11 11 11 10 11 11 11 11 11 11 11 11 11 12 12 12 12 12 11
17 21 17 14 15 16 15 16 15 14 14 16 16 16 18 18 19 21 21 21 22 22 23 22 20 20 19 20 21 20 18 19 19 20 20 20 18 19 19 18 16 14 15 14 14 13 11 11 10 11 12 12 12 12 12 12 11 12 13 11 12 13 12
16 21 18 15 16 15 15 15 16 15 15 16 17 16 15 16 18 19 19 21 20 20 20 21 20 20 20 20 20 18 20 19 18 19 21 20 19 19 18 17 15 15 15 15 16 14 13 13 12 11 12 13 13 12 12 12 12 12 13 14 13 13 13
10 13 17 18 16 14 12 13 18 18 15 17 19 17 15 17 19 18 16 18 20 18 18 18 17 17 19 20 20 17 18 19 18 17 19 17 16 15 16 17 17 17 16 16 16 16 15 15 14 12 12 13 13 13 13 13 13 12 13 13 13 13 13
13 12 12 14 15 16 15 11 13 14 15 16 17 16 15 17 18 16 14 16 17 17 18 17 16 17 17 18 17 16 18 17 17 17 16 15 14 14 15 16 15 15 14 14 16 16 16 16 15 14 13 13 14 13 12 13 13 13 12 12 12 12 12
13 13 10 11 9 12 11 9 9 12 15 15 17 16 16 15 15 13 12 14 14 17 17 14 15 15 17 16 16 15 16 15 15 14 14 15 15 15 15 14 14 13 13 12 14 14 16 15 15 14 14 14 13 13 12 13 13 12 12 12 13 12 13
13 14 12 11 9 8 8 9 9 11 11 13 15 14 15 13 13 14 14 14 15 15 14 13 15 15 15 17 15 14 14 15 14 14 14 15 15 15 15 13 13 13 14 13 13 13 13 13 13 14 15 14 14 13 12 12 11 13 18 16 13 13 12
8 12 14 11 9 10 7 7 7 9 10 11 12 14 14 12 12 13 18 17 18 15 14 13 14 15 16 15 14 14 15 15 15 14 15 15 14 14 14 14 13 12 13 13 13 13 12 12 13 13 13 15 15 15 13 12 11 18 19 20 21 15 13
8 12 15 13 11 9 8 8 8 8 10 11 11 11 11 11 11 12 16 16 16 17 17 13 14 17 15 14 13 14 14 14 15 15 15 14 14 14 14 14 13 12 12 13 13 12 11 13 14 12 12 12 15 16 14 14 16 20 21 22 23 21 15
11 15 13 12 12 12 12 12 12 10 11 12 12 11 11 10 11 12 11 12 13 12 16 16 14 15 15 15 15 14 14 14 15 15 15 15 15 14 13 14 14 14 13 14 13 12 12 12 13 13 13 12 13 16 15 14 18 19 22 23 23 23 20
6 3 14 16 14 12 10 10 12 12 12 9 11 14 13 12 12 10 11 11 11 13 12 13 12 13 15 15 15 15 14 14 14 15 15 14 14 14 14 14 15 15 14 12 12 13 13 13 13 13 13 13 13 12 14 15 16 20 22 23 24 23 21
4 5 5 3 6 11 10 7 10 7 9 11 12 10 10 10 10 9 10 10 11 11 10 11 12 10 14 15 14 14 14 15 14 14 14 14 14 14 15 15 14 14 13 13 14 14 14 14 14 13 14 15 15 12 12 13 19 21 23 23 25 25 19
9 7 5 5 11 11 8 9 7 8 4 2 3 10 12 11 12 13 13 12 12 11 12 9 11 9 12 14 14 14 14 14 14 13 13 13 14 14 15 14 13 14 13 12 12 12 11 12 13 14 14 14 15 15 15 13 18 21 23 25 24 25 15
8 11 13 8 10 10 7 6 5 5 4 3 3 4 8 11 12 12 12 14 14 11 12 12 12 12 12 14 14 14 14 13 14 14 14 13 14 15 15 14 13 13 11 11 11 11 13 13 14 12 13 14 14 15 14 14 15 20 23 24 25 18 9
10 8 5 11 10 9 7 6 5 5 3 5 4 5 3 7 12 10 10 11 13 14 14 14 13 11 10 13 14 14 14 14 14 14 14 13 15 15 14 13 11 12 11 13 13 13 13 12 11 11 12 14 15 14 13 13 14 18 20 23 23 21 10
13 4 11 11 8 9 9 8 5 3 3 3 6 6 5 5 5 13 10 11 14 14 13 14 12 12 12 13 13 13 13 13 13 13 14 14 13 13 12 12 12 10 9 11 11 12 9 9 10 11 11 14 14 15 15 14 13 15 18 20 21 19 13
12 13 11 11 10 9 7 4 1 2 5 7 7 6 6 8 6 7 11 11 12 12 13 12 11 10 9 10 11 11 12 12 13 13 13 14 13 11 11 10 11 12 12 11 11 11 11 10 10 11 11 12 13 14 14 14 13 11 18 19 20 22 15
11 11 12 10 9 7 4 1 2 2 2 4 2 7 7 7 6 5 7 10 10 11 10 8 8 9 9 10 11 12 12 11 12 13 13 12 12 11 10 10 11 11 11 12 11 10 10 11 10 10 10 10 11 12 12 12 12 10 18 18 20 21 17
9 10 10 8 6 4 1 1 3 3 5 4 1 3 5 4 5 5 5 9 11 10 6 7 9 9 10 10 11 11 12 12 10 11 11 10 10 10 10 9 10 9 10 10 9 10 10 9 9 9 9 9 9 10 9 10 14 10 14 18 19 19 23
10 10 9 6 6 5 1 2 1 4 4 2 4 4 4 4 5 4 4 7 7 7 5 6 9 10 10 10 11 10 10 10 11 11 10 9 10 10 10 9 9 9 9 10 9 9 9 9 8 8 8 7 7 6 7 6 7 11 9 16 20 22 22
6 5 6 9 8 7 6 2 3 3 2 4 3 3 3 4 4 3 3 4 4 6 4 6 8 9 9 9 9 9 9 10 10 11 9 9 9 9 9 9 8 8 8 8 8 7 8 7 7 7 8 8 7 6 5 4 3 6 13 12 17 18 21
8 6 6 7 7 5 5 5 1 1 2 2 1 2 2 3 3 4 3 3 3 4 4 5 7 8 8 9 9 8 9 8 8 9 9 8 9 9 8 9 8 8 7 7 7 6 6 6 6 6 6 6 5 4 3 4 5 3 9 14 17 20 21
5 7 5 4 7 7 4 2 3 3 3 3 5 4 1 2 3 4 5 4 3 3 3 5 6 7 7 7 7 8 9 9 10 9 8 8 7 7 7 8 8 7 6 6 6 6 6 6 6 5 5 5 6 6 6 5 2 3 8 7 7 4 1
6 7 10 7 5 5 3 2 1 3 3 4 5 6 6 5 6 7 5 4 4 3 5 5 6 6 5 6 6 7 7 9 9 8 7 7 6 6 7 7 7 7 6 6 6 7 7 6 5 5 5 5 4 4 5 4 0 9 8 7 5 4 1
6 5 3 5 5 6 2 2 2 3 4 3 3 4 5 5 6 5 4 3 4 3 3 5 5 6 6 7 7 7 7 7 12 10 7 7 7 7 8 7 6 7 6 5 6 7 7 6 7 7 6 5 2 2 5 7 9 7 7 6 5 5 6
4 5 5 5 3 3 3 4 4 4 5 5 5 5 5 5 4 3 3 3 3 4 4 4 5 5 6 6 6 6 5 6 7 9 8 7 9 9 8 3 3 9 8 7 5 4 1 3 5 6 7 7 6 4 5 7 7 5 3 4 2 4 3
4 5 4 2 1 2 2 3 5 6 5 5 4 3 4 5 4 4 6 4 2 5 5 6 6 6 6 6 6 6 6 6 7 8 9 10 8 9 9 15 18 9 9 6 9 16 16 12 6 4 5 8 7 6 7 6 4 5 5 5 4 4 5
4 3 1 0 1 4 4 4 5 5 5 4 5 5 5 5 4 6 6 5 5 4 6 5 5 6 7 7 4 4 4 4 6 8 11 9 9 8 12 9 12 17 15 14 12 15 17 17 17 18 15 10 7 7 12 10 5 3 3 2 1 3 5
3 2 1 1 4 5 6 5 5 5 6 3 3 4 4 6 6 6 6 6 6 6 7 7 6 8 6 6 7 10 9 8 7 8 9 9 8 9 10 10 9 7 10 10 12 15 15 16 15 15 14 14 11 7 2 5 11 13 14 15 16 17 16
Wind_Direction
172 173 177 178 181 191 183 180 188 186 195 194 197 200 192 191 186 179 180 180 183 183 183 182 183 184 186 185 187 189 192 191 189 194 197 197 196 190 182 186 189 192 192 190 189 194 188 194 191 192 182 187 196 190 188 190 187 182 184 191 162 168 188
177 178 176 176 179 185 187 186 187 191 198 193 195 197 195 193 188 182 182 180 182 183 182 184 183 184 185 185 186 187 191 191 190 191 194 197 196 197 186 184 188 189 195 192 188 190 189 193 194 186 182 184 193 192 190 189 189 185 184 180 176 172 186
173 176 174 181 182 185 183 182 185 192 196 190 193 196 197 194 189 185 181 181 182 183 183 184 185 183 183 184 185 189 190 191 190 191 194 197 196 199 190 186 188 191 196 195 188 186 191 189 197 189 183 181 191 192 192 188 189 189 186 180 182 187 185
176 178 174 175 182 181 178 186 195 189 185 192 195 198 196 192 190 184 182 182 181 182 184 185 184 184 182 183 186 186 189 192 193 194 196 197 195 195 193 191 191 195 193 200 196 187 190 191 189 197 187 180 185 190 192 189 190 191 189 182 187 192 191
173 182 172 178 186 181 174 175 180 192 196 202 201 198 196 189 188 186 185 186 184 184 185 183 184 185 183 184 185 187 188 191 193 194 195 197 194 192 196 196 194 197 197 194 197 198 191 182 186 189 197 187 182 184 190 190 191 189 192 185 189 194 190
179 182 174 180 179 174 180 184 190 194 197 198 199 196 196 192 192 191 188 185 187 186 184 183 184 182 183 185 185 186 188 191 192 193 194 193 191 192 197 197 196 198 200 196 195 198 198 189 186 185 193 196 191 188 191 192 193 190 192 189 193 195 192
177 189 171 175 174 176 182 185 189 192 194 196 194 192 193 193 193 193 189 188 187 184 185 186 186 183 185 185 189 185 186 189 191 193 193 194 194 194 195 196 198 196 201 194 198 195 197 200 193 185 189 198 200 199 192 192 194 191 190 195 194 202 198
179 186 172 171 169 175 182 185 187 189 194 196 194 191 194 195 193 191 192 190 188 187 187 187 186 186 184 186 187 187 187 190 191 192 192 195 194 197 194 194 197 198 194 197 198 197 197 196 200 193 187 195 196 201 196 188 192 191 190 194 197 202 204
178 178 179 179 175 172 172 173 178 178 186 195 197 192 193 194 194 194 193 190 189 188 189 189 189 187 184 186 187 187 187 188 190 190 193 196 198 199 199 196 194 195 197 199 200 198 202 194 196 197 194 193 194 195 200 192 190 193 192 193 198 201 205
170 173 176 183 171 167 162 165 155 173 193 194 198 190 190 196 195 194 194 192 190 191 189 189 189 188 186 189 190 188 185 186 188 191 193 196 196 199 199 199 197 192 199 202 205 197 198 201 194 194 197 198 195 194 198 198 192 194 196 194 196 201 205
154 166 168 176 156 157 163 164 168 189 193 189 193 191 189 194 195 195 195 194 193 193 190 189 187 187 185 189 191 188 187 188 188 190 192 194 196 198 198 198 198 194 198 201 206 204 192 199 199 193 195 199 200 197 196 198 197 195 199 198 196 200 204
147 156 165 164 156 170 174 172 176 186 193 188 187 191 188 190 196 198 197 198 196 193 190 190 188 187 184 187 188 187 188 188 191 192 193 194 196 197 199 199 197 196 194 198 202 204 200 193 198 198 195 198 200 201 199 196 198 198 200 202 199 198 203
137 157 163 160 164 169 178 173 177 184 182 180 184 189 187 188 195 199 196 197 197 195 192 188 189 185 185 187 190 187 191 190 192 192 195 192 195 196 198 199 200 200 198 196 201 202 204 198 195 198 199 198 200 202 201 200 200 201 201 203 202 199 200
95 125 147 158 172 173 176 176 175 178 176 177 183 188 190 191 195 197 194 194 197 197 195 192 189 186 184 187 189 189 190 192 192 193 195 193 191 195 198 200 199 200 197 191 198 203 205 205 195 194 199 199 201 202 202 201 202 202 203 203 204 202 201
120 120 115 129 129 153 164 154 168 175 173 177 181 186 191 192 194 195 192 194 194 200 199 189 186 187 185 185 190 189 187 188 191 194 193 193 191 195 197 199 199 198 197 194 195 202 207 208 204 194 197 200 200 201 203 204 204 203 202 202 203 206 205
152 132 132 137 139 140 145 160 158 166 167 173 180 184 190 192 189 190 192 193 193 199 200 186 184 186 186 187 189 185 183 185 188 191 193 195 194 195 197 198 198 198 198 200 198 196 201 207 210 201 193 195 197 200 204 207 207 203 198 197 202 206 209
175 147 130 145 143 151 149 149 154 162 173 181 184 185 190 193 190 186 196 197 199 194 199 189 179 185 188 188 185 183 182 184 188 188 193 196 195 193 196 199 199 200 200 201 202 201 195 200 206 212 199 194 196 199 204 207 208 196 194 196 199 202 207
190 139 141 145 149 147 154 159 169 173 182 189 193 192 192 191 189 189 198 195 199 196 198 200 182 185 186 181 180 183 184 186 185 188 193 193 196 194 195 197 200 202 201 201 202 202 198 197 204 209 212 199 197 202 204 208 206 194 194 196 198 199 204
157 150 142 148 146 143 165 176 178 182 190 194 198 201 200 190 189 194 197 196 194 196 198 204 190 180 181 180 179 183 185 185 186 189 189 192 194 195 192 195 201 204 203 204 202 199 203 202 199 205 211 214 200 203 205 211 204 194 194 197 199 201 203
341 74 140 155 146 156 169 186 174 180 184 189 193 201 204 200 198 195 193 198 190 195 200 198 201 179 182 180 180 181 181 184 188 190 192 190 191 192 194 196 200 202 203 204 199 202 204 205 204 203 207 213 215 208 206 208 201 193 195 198 200 202 204
314 293 325 323 157 183 163 123 100 138 166 190 191 189 194 194 197 189 191 200 198 194 197 197 205 180 180 182 180 179 180 183 186 189 190 189 189 191 195 198 199 200 202 203 203 202 203 205 206 206 206 210 215 220 217 212 196 189 194 198 200 203 203
216 246 282 279 81 92 105 117 128 128 133 116 205 184 189 190 195 199 199 198 203 195 195 196 201 191 178 181 180 180 180 181 185 187 189 189 190 194 198 197 196 198 200 205 206 206 204 207 210 210 210 211 213 219 224 221 195 191 192 196 200 200 199
230 206 208 153 129 107 92 103 106 118 139 155 236 249 190 184 190 197 197 197 204 198 194 196 200 199 182 183 180 179 178 180 184 185 187 188 190 194 197 196 196 198 197 206 209 206 205 207 209 211 212 214 214 219 223 227 204 191 194 196 198 194 198
238 245 216 124 111 114 116 121 128 129 161 171 212 244 269 190 177 188 191 195 199 202 199 200 202 198 182 184 181 178 176 179 182 186 188 190 194 195 196 195 197 199 195 204 208 212 211 210 212 213 215 217 219 216 223 227 212 191 197 197 195 192 190
224 163 77 82 89 91 82 74 61 60 142 191 210 216 248 272 202 181 191 190 200 203 203 202 198 194 189 184 182 181 179 179 182 185 187 191 195 189 188 193 195 196 195 205 209 216 215 208 209 212 215 220 222 221 222 228 220 192 196 197 196 195 203
81 93 95 89 80 75 73 53 71 232 242 221 219 217 215 229 243 207 185 193 197 203 204 201 193 188 180 175 177 180 181 182 182 185 190 191 190 189 190 187 191 195 197 202 207 211 216 216 212 211 214 217 222 226 224 226 228 191 195 193 198 197 200
49 60 65 64 53 38 47 125 220 263 303 25 192 201 220 218 224 230 180 182 193 209 205 187 174 174 176 170 176 181 184 184 186 187 191 192 190 189 189 190 195 195 197 200 203 207 209 217 220 219 219 216 217 226 226 226 227 204 188 194 194 197 199
38 50 58 62 62 65 25 3 78 264 246 201 292 237 223 229 225 229 184 181 194 200 185 165 169 167 172 173 177 182 186 189 187 187 191 189 184 188 190 190 193 195 193 196 201 205 205 208 219 224 225 223 225 228 223 219 210 217 188 191 194 194 201
24 22 23 65 77 65 68 81 32 21 21 321 248 234 267 251 236 224 186 191 188 173 175 159 164 165 169 172 176 179 186 189 184 183 191 189 185 185 187 185 189 192 191 192 198 201 203 206 208 217 229 234 234 234 229 227 219 209 181 192 191 195 199
18 10 34 48 50 38 40 62 28 18 339 339 316 263 251 263 237 206 176 159 138 155 159 151 152 157 163 169 176 177 183 185 183 183 188 186 180 181 182 186 187 189 190 189 194 194 200 204 202 212 220 228 233 238 248 241 235 187 176 178 194 196 201
8 11 41 35 29 11 13 41 44 21 355 354 336 207 244 245 219 159 164 126 116 137 150 143 149 152 161 167 176 179 185 183 186 182 186 183 177 174 178 184 182 187 187 186 189 192 203 199 201 210 220 229 238 252 264 255 238 273 178 187 193 201 206
5 30 24 37 39 14 358 16 69 76 54 35 18 8 152 146 117 121 87 63 105 143 131 124 128 140 149 156 170 181 190 189 188 180 182 175 171 169 169 178 178 186 178 181 182 195 200 205 209 212 216 216 233 225 226 228 209 257 61 50 78 67 47
354 20 19 33 12 323 343 295 94 89 83 53 25 25 33 62 73 80 96 97 66 86 98 116 120 129 143 162 175 182 190 182 185 176 169 163 160 165 171 174 180 182 180 177 196 197 198 202 203 214 221 227 224 216 211 219 88 53 50 31 30 26 105
340 328 23 20 353 322 347 1 43 64 66 53 30 43 55 58 79 88 93 113 149 118 117 120 134 150 163 173 181 187 185 172 176 163 157 162 173 172 177 182 182 180 174 191 203 197 191 202 199 204 220 226 232 49 57 63 72 51 34 36 15 16 4
326 318 318 315 320 322 49 52 67 74 74 65 29 38 54 55 70 91 126 165 172 129 150 128 142 152 165 172 166 177 164 160 161 153 159 104 65 50 32 322 150 87 71 42 4 22 37 136 73 63 67 71 57 53 56 49 54 43 64 67 50 1 356
312 299 298 333 291 60 82 76 88 81 73 49 42 57 68 71 75 67 64 40 137 160 147 151 162 165 164 165 152 153 158 163 155 170 137 115 106 87 62 38 43 60 102 75 60 66 65 75 81 47 56 83 62 46 65 59 54 94 101 138 162 180 211
291 269 263 225 163 103 93 85 83 87 79 69 54 53 41 39 94 83 68 60 67 103 133 147 122 89 62 52 46 75 129 96 79 72 92 105 106 102 98 90 53 39 58 92 96 93 90 89 86 71 60 69 94 93 103 101 70 8 3 43 62 175 202
276 282 224 181 98 109 116 119 117 107 95 87 57 55 80 84 79 71 75 53 42 47 58 58 77 95 90 76 78 64 63 70 77 82 98 106 111 114 111 104 101 74 27 28 89 97 97 98 94 92 88 79 79 80 78 27 10 9 8 4 1 353 344